Simultaneous Nadir Overpasses (SNOs) Predictions

Prediction of SNOs between GOES-14 and NOAA-20 Satellite Orbit:

Table of predicted SNOs for the next 14.0 days since TLE Epoch: 2/13/2021
Index Date Time (GOES-14) GOES-14 Lat,Lon NOAA-20 Lat,Lon Distance(km) Time Diff (sec)
1 02/13/2021 20:02:02 0.02,-104.15 0.98, -99.76 499.60 80
2 02/15/2021 08:23:50 -0.01,-104.38 0.16,-105.03 74.98 80
3 02/16/2021 08:07:46 -0.02,-104.39 -0.87,-100.50 442.39 80
4 02/17/2021 20:29:41 0.01,-104.18 -0.37,-105.79 184.80 80
5 02/18/2021 20:08:16 0.02,-104.17 0.66,-101.26 331.53 80
6 02/20/2021 08:30:05 -0.01,-104.39 0.48,-106.54 244.59 80
7 02/21/2021 08:14:00 -0.01,-104.40 -0.55,-102.01 272.64 80
8 02/22/2021 20:35:56 -0.00,-104.20 -0.69,-107.30 353.09 80
9 02/23/2021 20:14:31 0.00,-104.19 0.34,-102.77 162.90 80
10 02/25/2021 08:36:19 0.00,-104.39 0.80,-108.04 415.49 80
11 02/26/2021 08:20:14 -0.00,-104.40 -0.18,-103.50 101.71 80
